Location: ??????
(55.2000°N, 38.3000°E)
Time: 23:58:03
(UTC+00:00)

NOSS 2-2 (E) - Pass Details

Date: 15 November 2025
Orbit: 385 x 1723 km, 63.3° (Epoch: 12 December)

Event Time Altitude Azimuth Distance (km) Brightness Sun altitude
Exits shadow 04:08:41 - 299° (WNW) 1,728 5.2 -7.3°
Reaches altitude 10° 04:08:47 10° 298° (WNW) 1,686 5.1 -7.3°
Maximum altitude 04:12:16 41° 227° (SW) 854 4.1 -6.8°
Drops below altitude 10° 04:16:52 10° 158° (SSE) 2,233 7.1 -6.2°
Sets 04:19:47 0° 152° (SSE) 3,391 8.3 -5.9°
